[TLELIST] Archives

 

Current TLEs

April 29th 2006 PDT

HST 1 20580U 90037B 06117.79590521 +.00000673 +00000-0 +39802-4 0 05984 2 20580 028.4683 018.3802 0003302 010.1316 349.9338 15.00017391677523 ISS (ZARYA) 1 25544U 98067A 06119.47881944 .00009881 00000-0 66990-4 0 8272 2 25544 051.6382 078.1995 0008797 161.9751 340.0953 15.75717921425489 CXO 1 25867U 99040B 06120.16666667 .00000000 00000-0 00000+0 0 9206 2 25867 059.3357 097.4652 5794016 292.3120 359.8220 00.37795408 1212 ____________________________________________________________________ These 2-Line ...Continue Reading

Current TLEs

April 28th 2006 PDT

HST 1 20580U 90037B 06118.06204602 .00000529 00000-0 28532-4 0 5974 2 20580 028.4684 016.6460 0003227 013.8564 346.2090 15.00016986677564 ISS (ZARYA) 1 25544U 98067A 06118.45611307 .00007384 00000-0 51204-4 0 8215 2 25544 051.6382 083.4647 0008872 159.9077 296.8632 15.75685262425321 CXO 1 25867U 99040B 06117.54166667 .00000000 00000-0 00000+0 0 9197 2 25867 059.2848 097.5458 5801633 292.3164 002.4665 00.37807696 1210 ____________________________________________________________________ These 2-Line ...Continue Reading

Current TLEs

April 27th 2006 PDT

HST 1 20580U 90037B 06116.86441210 .00000664 00000-0 39145-4 0 5969 2 20580 028.4682 024.4516 0003325 358.7280 001.3311 15.00016434677389 ISS (ZARYA) 1 25544U 98067A 06117.48776983 .00007225 00000-0 45970-4 0 8148 2 25544 051.6367 088.4525 0008793 157.5940 202.5973 15.75668126425174 CXO 1 25867U 99040B 06117.54166667 .00000000 00000-0 00000+0 0 9197 2 25867 059.2848 097.5458 5801633 292.3164 002.4665 00.37807696 1210 __ These 2-Line Elements (TLEs) are direct from DoD/USSTRATCOM/US Space Command w ...Continue Reading

Current TLEs

April 26th 2006 PDT

HST 1 20580U 90037B 06115.79984768 .00000566 00000-0 31433-4 0 5952 2 20580 028.4681 031.3898 0003317 346.7156 013.3348 15.00014953677228 ISS (ZARYA) 1 25544U 98067A 06116.43399368 .00011300 00000-0 76167-4 0 8073 2 25544 051.6391 093.8748 0008967 151.0196 347.7315 15.75663352425003 CXO 1 25867U 99040B 06114.87500000 .00000000 00000-0 00000+0 0 9182 2 25867 059.2379 097.6715 5801804 292.2526 359.5182 00.37807984 1217 __ These 2-Line Elements (TLEs) are direct from DoD/USSTRATCOM/US Space Command w ...Continue Reading

Current TLEs

April 25th 2006 PDT

HST 1 20580U 90037B 06113.93685944 +.00000492 +00000-0 +25558-4 0 06152 2 20580 028.4677 043.5373 0003514 327.5975 032.4401 15.00013051676949 ISS (ZARYA) 1 25544U 98067A 06115.47421414 .00011773 00000-0 79242-4 0 8019 2 25544 051.6383 098.8172 0008962 147.9003 302.9764 15.75642362424857 CXO 1 25867U 99040B 06114.87500000 .00000000 00000-0 00000+0 0 9182 2 25867 059.2379 097.6715 5801804 292.2526 359.5182 00.37807984 1217 __ These 2-Line Elements (TLEs) are direct from DoD/USSTRATCOM/US Space Command w ...Continue Reading

Current TLEs

April 24th 2006 PDT

HST 1 20580U 90037B 06113.93685944 +.00000492 +00000-0 +25558-4 0 06152 2 20580 028.4677 043.5373 0003514 327.5975 032.4401 15.00013051676949 ISS (ZARYA) 1 25544U 98067A 06114.46787179 .00011163 00000-0 75442-4 0 7942 2 25544 051.6389 103.9954 0009219 144.2064 354.5721 15.75615645424694 CXO 1 25867U 99040B 06114.87500000 .00000000 00000-0 00000+0 0 9182 2 25867 059.2379 097.6715 5801804 292.2526 359.5182 00.37807984 1217 __ These 2-Line Elements (TLEs) are direct from DoD/USSTRATCOM/US Space Command w ...Continue Reading

Current TLEs

April 22nd 2006 PDT

HST 1 20580U 90037B 06111.20890754 .00000440 00000-0 21505-4 0 5922 2 20580 028.4677 061.3171 0003595 297.9997 062.0230 15.00011015676538 ISS (ZARYA) 1 25544U 98067A 06112.49183144 .00013402 00000-0 89872-4 0 7822 2 25544 051.6391 114.1672 0008928 136.3624 306.4928 15.75575664424385 CXO 1 25867U 99040B 06112.25000000 .00000000 00000-0 00000+0 0 9176 2 25867 059.2176 097.7612 5794290 292.2390 002.2092 00.37794857 1214 __ These 2-Line Elements (TLEs) are direct from DoD/USSTRATCOM/US Space Command w ...Continue Reading

Current TLEs

April 21st 2006 PDT

HST 1 20580U 90037B 06110.94276567 +.00000515 +00000-0 +27426-4 0 06115 2 20580 028.4675 063.0532 0003660 294.9912 065.0307 15.00011226676490 ISS (ZARYA) 1 25544U 98067A 06111.48646925 .00016205 00000-0 10784-3 0 7763 2 25544 051.6388 119.3448 0009016 132.9752 003.6094 15.75555967424229 CXO 1 25867U 99040B 06112.25000000 .00000000 00000-0 00000+0 0 9176 2 25867 059.2176 097.7612 5794290 292.2390 002.2092 00.37794857 1214 ...Continue Reading

Current TLEs

April 20th 2006 PDT

HST 1 20580U 90037B 06109.94473380 +.00000634 +00000-0 +36763-4 0 05941 2 20580 028.4673 069.5588 0003678 284.9703 075.0487 15.00011099676348 ISS (ZARYA) 1 25544U 98067A 06109.95363748 +.00010312 +00000-0 +70379-4 0 07682 2 25544 051.6389 127.2313 0009116 128.4292 308.1995 15.75496992423986 CXO 1 25867U 99040B 06112.25000000 .00000000 00000-0 00000+0 0 9176 2 25867 059.2176 097.7612 5794290 292.2390 002.2092 00.37794857 1214 ...Continue Reading

Current TLEs

April 19th 2006 PDT

HST 1 20580U 90037B 06107.28331398 +.00000992 +00000-0 +64887-4 0 06089 2 20580 028.4677 086.9027 0003829 253.2380 106.7785 15.00009508675941 ISS (ZARYA) 1 25544U 98067A 06107.92315590 +.00018528 +00000-0 +12306-3 0 07546 2 25544 051.6404 137.6796 0008955 120.1972 312.4078 15.75479631423664 CXO 1 25867U 99040B 06109.54166667 .00000000 00000-0 00000+0 0 9165 2 25867 059.2080 097.7890 5788390 292.3153 353.4821 00.37789697 1215 ...Continue Reading
  • This mailing list is a public mailing list - anyone may join or leave, at any time.
  • This mailing list is announce-only.

International Space Station (ISS) / Hubble Space Telescope (HST) / Chandra X-Ray Observatory Orbital Data via EMAIL

Privacy Policy:

Private list